Total_Precipitation_Accumulation
1.96 2.14 2.08 2.00 1.98 1.95 2.30 2.63 2.78 2.58 2.45 2.37 2.15 2.04 2.13 2.25 2.31 1.99 1.84 1.95 1.86 1.73 1.60 1.52 1.50 1.57 1.70 1.85 1.93 2.02 2.18 2.44 2.70 2.85 3.08 3.51 3.97 4.39
2.09 2.14 2.08 2.05 2.13 2.06 2.19 2.44 2.66 2.84 2.65 2.19 2.04 1.94 1.93 1.75 1.85 1.66 1.67 1.86 1.74 1.58 1.52 1.50 1.49 1.48 1.46 1.50 1.55 1.58 1.62 1.70 1.84 1.96 2.05 2.24 2.53 2.96
2.25 2.23 2.28 2.40 2.37 2.28 2.37 2.43 2.57 2.83 2.77 2.28 2.19 2.20 2.04 1.83 1.76 1.67 1.62 1.71 1.73 1.82 1.65 1.53 1.43 1.35 1.33 1.32 1.35 1.42 1.47 1.53 1.59 1.65 1.73 1.82 1.83 1.94
2.37 2.60 2.53 2.58 2.53 2.38 2.47 2.43 2.49 2.78 2.69 2.44 2.45 2.47 2.40 2.18 2.03 1.83 1.64 1.63 1.73 1.93 1.68 1.53 1.45 1.38 1.35 1.34 1.32 1.30 1.32 1.36 1.41 1.44 1.47 1.50 1.55 1.61
2.41 2.49 2.52 2.70 2.57 2.47 2.42 2.40 2.48 2.64 2.74 2.53 2.47 2.64 2.54 2.29 2.13 1.87 1.66 1.74 1.57 1.68 1.65 1.57 1.54 1.47 1.41 1.34 1.31 1.29 1.25 1.24 1.28 1.34 1.41 1.50 1.52 1.47
2.35 2.28 2.37 2.60 2.65 2.64 2.47 2.45 2.58 2.68 2.70 2.61 2.51 2.62 2.65 2.58 2.40 2.18 2.06 1.89 1.72 1.59 1.65 1.55 1.53 1.48 1.40 1.31 1.26 1.25 1.27 1.25 1.22 1.19 1.19 1.21 1.24 1.27
2.13 2.03 2.03 2.27 2.49 2.57 2.32 2.33 2.47 2.49 2.49 2.51 2.50 2.56 2.61 2.76 2.63 2.36 2.12 1.97 1.74 1.56 1.57 1.45 1.40 1.32 1.35 1.36 1.29 1.21 1.14 1.13 1.11 1.09 1.08 1.07 1.05 1.05
2.13 2.03 1.92 1.91 1.92 2.06 2.15 2.28 2.43 2.40 2.39 2.55 2.70 2.75 2.74 2.76 2.77 2.56 2.28 2.04 1.84 1.64 1.69 1.67 1.58 1.50 1.36 1.26 1.30 1.22 1.14 1.12 1.09 1.04 1.01 1.01 1.01 1.01
1.97 1.95 1.68 1.53 1.64 1.56 1.75 1.92 2.04 2.12 2.16 2.33 2.48 2.58 2.72 2.87 2.93 2.66 2.45 2.24 1.98 1.80 1.78 1.64 1.53 1.51 1.41 1.38 1.47 1.30 1.23 1.19 1.15 1.13 1.08 1.02 0.98 1.00
1.67 1.68 1.65 1.58 1.57 1.64 1.65 1.62 1.59 1.66 1.81 1.83 1.93 2.19 2.46 2.69 2.84 2.73 2.63 2.32 2.00 1.77 1.71 1.59 1.44 1.41 1.35 1.39 1.52 1.42 1.29 1.20 1.11 1.06 1.05 1.00 0.94 0.95
1.64 1.66 1.69 1.61 1.76 1.69 1.62 1.63 1.64 1.65 1.70 1.76 1.76 1.92 2.18 2.36 2.48 2.55 2.51 2.36 2.07 1.82 1.74 1.74 1.55 1.48 1.42 1.30 1.31 1.40 1.30 1.20 1.12 1.07 1.03 0.99 1.00 1.00
1.70 1.70 1.69 1.59 1.62 1.52 1.45 1.56 1.55 1.58 1.67 1.67 1.65 1.65 1.73 2.05 2.39 2.24 2.27 2.32 2.10 1.79 1.54 1.61 1.60 1.63 1.53 1.22 1.09 1.10 1.09 1.15 1.18 1.13 1.10 1.07 1.11 1.04
1.84 1.76 1.74 1.68 1.38 1.33 1.31 1.32 1.35 1.43 1.56 1.51 1.42 1.41 1.51 1.68 1.94 2.03 2.03 2.02 1.98 1.73 1.51 1.52 1.47 1.51 1.44 1.19 1.03 0.97 0.96 0.96 0.97 1.05 1.11 1.14 1.15 1.07
1.80 1.80 1.82 1.70 1.39 1.26 1.14 1.12 1.15 1.11 1.15 1.25 1.28 1.29 1.36 1.49 1.64 1.80 1.90 1.96 1.88 1.73 1.66 1.66 1.52 1.45 1.39 1.22 1.04 0.94 0.97 0.98 0.98 0.96 1.00 1.23 1.26 1.21
1.63 1.79 1.68 1.53 1.32 1.11 1.07 1.05 1.01 0.94 1.03 1.18 1.23 1.24 1.26 1.36 1.60 1.89 2.06 2.16 2.09 1.81 1.68 1.66 1.63 1.57 1.56 1.38 1.17 1.02 0.99 0.99 0.99 1.04 1.05 1.13 1.24 1.25
1.47 1.54 1.53 1.49 1.39 1.23 1.12 1.02 0.96 1.01 1.10 1.15 1.25 1.37 1.50 1.59 1.67 1.77 1.95 2.03 2.06 1.86 1.66 1.64 1.62 1.68 1.59 1.37 1.28 1.15 1.02 0.98 0.98 1.07 1.15 1.17 1.28 1.35
1.38 1.39 1.42 1.51 1.55 1.52 1.46 1.36 1.30 1.30 1.26 1.23 1.35 1.48 1.49 1.50 1.51 1.63 1.82 1.88 1.78 1.63 1.51 1.46 1.57 1.61 1.56 1.47 1.33 1.12 1.02 0.96 0.96 1.08 1.26 1.29 1.25 1.27
1.29 1.37 1.51 1.59 1.65 1.67 1.67 1.57 1.44 1.32 1.25 1.28 1.34 1.42 1.47 1.49 1.52 1.65 1.78 1.81 1.66 1.53 1.51 1.41 1.48 1.67 1.66 1.45 1.23 1.14 1.08 0.99 0.98 1.13 1.23 1.28 1.22 1.15
1.07 1.22 1.40 1.47 1.53 1.54 1.55 1.49 1.44 1.40 1.39 1.42 1.48 1.53 1.58 1.58 1.59 1.62 1.73 1.78 1.67 1.53 1.50 1.51 1.47 1.54 1.55 1.26 0.98 0.94 1.09 1.14 1.20 1.27 1.31 1.27 1.18 1.09
0.89 1.02 1.15 1.28 1.40 1.53 1.60 1.59 1.56 1.55 1.50 1.46 1.54 1.58 1.64 1.69 1.66 1.61 1.67 1.75 1.72 1.65 1.59 1.53 1.46 1.40 1.39 1.33 1.16 1.01 1.03 1.20 1.34 1.38 1.34 1.36 1.30 1.23
0.93 0.95 1.02 1.17 1.36 1.53 1.66 1.74 1.76 1.70 1.58 1.55 1.57 1.61 1.62 1.71 1.70 1.63 1.67 1.81 1.82 1.73 1.53 1.33 1.26 1.42 1.55 1.70 1.53 1.13 1.01 1.08 1.20 1.33 1.41 1.49 1.45 1.39
1.01 1.03 1.09 1.20 1.37 1.55 1.64 1.67 1.71 1.66 1.62 1.59 1.56 1.61 1.66 1.68 1.65 1.61 1.64 1.73 1.71 1.64 1.51 1.43 1.54 1.73 1.81 1.76 1.50 1.27 1.20 1.17 1.22 1.28 1.31 1.33 1.34 1.28
1.12 1.08 1.08 1.15 1.31 1.45 1.53 1.57 1.61 1.58 1.53 1.53 1.53 1.57 1.64 1.69 1.72 1.70 1.67 1.71 1.73 1.76 1.85 1.81 1.78 1.78 1.76 1.72 1.61 1.45 1.33 1.28 1.32 1.36 1.23 1.15 1.08 1.02